Regional Weather Roundup
Issued by NWS State College, PA

Home | Current Version | Previous Version | Graphics & Text | Print | Product List | Glossary Off
Versions: 1 2 3 4 5 6 7 8 9 10 11 12 13 14 15 16 17 18 19 20 21 22 23 24 25 26 27 28 29 30 31 32 33 34 35 36 37 38 39 40 41 42 43 44 45 46 47 48 49 50

922
ASUS41 KCTP 110103
RWRCTP

REGIONAL WEATHER ROUNDUP
NATIONAL WEATHER SERVICE STATE COLLEGE PA
800 PM EST SUN DEC 10 2017

Note: "fair" indicates few or no clouds below 12,000 feet with no
significant weather and/or obstructions to visibility.

* = STATION THAT DOES NOT REPORT PRECIPITATION /E.G. RAIN...SNOW...ETC/
    THUNDER OR FOG.

PAZ002>004-007>009-013>016-020>023-029>032-110200-
WESTERN PENNSYLVANIA

CITY           SKY/WX    TMP DP  RH WIND       PRES   REMARKS
ERIE           CLOUDY    28  17  63 SW14      29.93S
MEADVILLE      FLURRIES  26  17  68 SW10      29.93R
FRANKLIN*      FLURRIES  26  16  65 W14G20    29.93R WCI  14
NEW CASTLE     CLOUDY    29  18  63 W8        29.98R
BEAVER COUNTY  NOT AVBL
BUTLER*        CLOUDY    29  17  61 SW12      29.97R
PITTSBURGH INT CLOUDY    32  17  54 W8        29.97R
PITTSBURGH     CLOUDY    30  16  56 SW9       29.97R
INDIANA*       CLOUDY    30  19  64 W10G17    29.99R
LATROBE        MOCLDY    30  19  64 SW12      29.98S
WASHINGTON CO* CLOUDY    31  19  61 SW6       30.01R
$$

PAZ004>006-010>012-017>019-024>028-033>037-041-042-045-046-049>053-110200-
CENTRAL PENNSYLVANIA

CITY           SKY/WX    TMP DP  RH WIND       PRES   REMARKS
BRADFORD       CLOUDY    24  17  74 SW7       29.86R
DUBOIS         CLOUDY    26  16  65 W13       29.90R WCI  15
CLEARFIELD     CLOUDY    29  18  63 SW10      29.92R
JOHNSTOWN      CLOUDY    25  17  72 SW12      29.90R WCI  14
ALTOONA        MOCLDY    31  18  58 SW10      29.95S
STATE COLLEGE  CLOUDY    30  18  59 SW10      29.94S
WILLIAMSPORT   CLOUDY    34  19  54 SW9       29.96S
SELINSGROVE    CLOUDY    32  20  61 S3        29.99S
FT INDIANTOWN  CLOUDY    32  20  61 SW3       30.00R
CAPITAL CITY   CLOUDY    35  17  47 SW6       30.01R
HARRISBURG     PTCLDY    35  21  56 SW5       30.01R
YORK           CLOUDY    34  20  56 SW6       30.02R
$$

PAZ038>040-043-044-047-048-054-055-060>062-067>071-110200-
EASTERN PENNSYLVANIA

CITY           SKY/WX    TMP DP  RH WIND       PRES   REMARKS
SCRANTON       CLOUDY    31  18  58 SW10      29.94R
MOUNT POCONO   MOCLDY    25  17  72 W8        29.89R
ALLENTOWN      CLOUDY    32  21  64 SW7       30.00R
QUAKERTOWN*    CLOUDY    32  19  59 SW3       30.00S
READING        CLOUDY    33  23  66 SW6       30.00S
LANCASTER      FLURRIES  34  22  61 SW9       30.02R
COATESVILLE    CLOUDY    32  21  64 VRB3      30.02S
POTTSTOWN      CLOUDY    33  19  56 CALM      30.03R
BLUE BELL      PTCLDY    32  21  64 SW5       30.04S
DOYLESTOWN     PTCLDY    32  20  61 SW5       30.00S
WILLOW GROVE   NOT AVBL
NORTH PHILA    CLOUDY    37  22  54 SW8       30.05R
PHILADELPHIA   CLOUDY    36  23  59 SW9       30.05R
$$




USA.gov is the U.S. government's official web portal to all federal, state and local government web resources and services.